W0GEN-13 Weather Reports


Display with metric or nautical units.
time (UTC)temp
F
wind
direction
speed
MPH
gust
MPH
rain 1hr
in
rain 24hr
in
rain mn
in
humidity
%
barometer
mb
20260906170519 76 66 9.0 14.0 0.00 0.00 0.00 82 1018.1
20260906170019 76 110 8.0 13.0 0.00 0.00 0.00 82 1018.2
20260906165519 76 105 8.0 17.0 0.00 0.00 0.00 82 1018.3
20260906165019 76 85 13.0 17.0 0.00 0.00 0.00 82 1018.3
20260906164519 76 129 8.0 14.0 0.00 0.00 0.00 83 1018.4
20260906164019 76 107 10.0 15.0 0.00 0.00 0.00 83 1018.3
20260906163519 76 146 1.0 15.0 0.00 0.00 0.00 84 1018.3
20260906163019 75 88 3.0 14.0 0.00 0.00 0.00 83 1018.2
20260906162019 75 91 6.0 14.0 0.00 0.00 0.00 84 1018.2
20260906161519 75 90 13.0 13.0 0.00 0.00 0.00 84 1018.2
20260906161019 75 100 9.0 11.0 0.00 0.00 0.00 85 1018.3
20260906160019 74 86 8.0 9.0 0.00 0.00 0.00 86 1018.2
20260906155519 74 107 5.0 12.0 0.00 0.00 0.00 86 1018.3
20260906155019 74 86 2.0 12.0 0.00 0.00 0.00 87 1018.2
20260906154520 73 96 8.0 11.0 0.00 0.00 0.00 87 1018.2
20260906154019 73 92 9.0 13.0 0.00 0.00 0.00 87 1018.4
20260906153519 73 76 8.0 13.0 0.00 0.00 0.00 88 1018.3
20260906153019 73 80 3.0 9.0 0.00 0.00 0.00 88 1018.4
20260906152519 73 119 0.0 8.0 0.00 0.00 0.00 88 1018.5
20260906152019 73 102 5.0 8.0 0.00 0.00 0.00 89 1018.5
20260906151519 72 106 5.0 10.0 0.00 0.00 0.00 89 1018.6
20260906145019 72 90 2.0 10.0 0.00 0.00 0.00 90 1018.3
20260906144519 71 127 8.0 10.0 0.00 0.00 0.00 90 1018.4
20260906144019 71 97 8.0 9.0 0.00 0.00 0.00 90 1018.4
20260906143519 71 101 6.0 11.0 0.00 0.00 0.00 90 1018.4
20260906143019 71 117 5.0 11.0 0.00 0.00 0.00 90 1018.4
20260906142519 71 92 7.0 11.0 0.00 0.00 0.00 90 1018.4
20260906142019 71 102 7.0 11.0 0.00 0.00 0.00 91 1018.3
20260906141519 71 131 5.0 9.0 0.00 0.00 0.00 91 1018.3
20260906141019 71 117 9.0 9.0 0.00 0.00 0.00 91 1018.4
20260906140519 71 71 4.0 13.0 0.00 0.00 0.00 91 1018.3
20260906140019 71 90 6.0 13.0 0.00 0.00 0.00 91 1018.2
20260906135519 71 77 9.0 12.0 0.00 0.00 0.00 91 1018.3
20260906135019 71 90 5.0 8.0 0.00 0.00 0.00 91 1018.3
20260906134519 71 144 7.0 9.0 0.00 0.00 0.00 91 1018.3
20260906133519 71 88 9.0 14.0 0.00 0.00 0.00 91 1018.1
20260906133019 71 99 6.0 15.0 0.00 0.00 0.00 91 1018.0
20260906132519 71 113 5.0 15.0 0.00 0.00 0.00 91 1017.8
20260906132019 71 119 7.0 12.0 0.00 0.00 0.00 91 1017.7
20260906131519 71 69 4.0 14.0 0.00 0.00 0.00 91 1017.7
20260906131019 71 103 7.0 15.0 0.00 0.00 0.00 91 1017.6
20260906130519 71 100 8.0 15.0 0.00 0.00 0.00 91 1017.6
20260906130019 71 101 3.0 13.0 0.00 0.00 0.00 91 1017.5
20260906125519 70 62 4.0 13.0 0.00 0.00 0.00 91 1017.5
20260906125049 70 106 4.0 16.0 0.00 0.00 0.00 91 1017.4
20260906124519 70 94 3.0 16.0 0.00 0.00 0.00 91 1017.5
20260906124019 70 93 5.0 12.0 0.00 0.00 0.00 91 1017.5
20260906123519 70 97 8.0 18.0 0.00 0.00 0.00 91 1017.4
20260906123019 71 109 8.0 18.0 0.00 0.00 0.00 92 1017.5
20260906122519 71 84 11.0 13.0 0.00 0.00 0.00 92 1017.4
20260906122019 71 76 3.0 13.0 0.00 0.00 0.00 92 1017.3
20260906121519 71 104 7.0 13.0 0.00 0.00 0.00 92 1017.3
20260906121019 71 52 6.0 13.0 0.00 0.00 0.00 92 1017.3
20260906115519 71 91 8.0 13.0 0.00 0.00 0.00 92 1017.3
20260906115019 71 109 4.0 13.0 0.00 0.00 0.00 92 1017.2
20260906114019 70 109 4.0 13.0 0.00 0.00 0.00 92 1017.0
20260906113519 70 86 6.0 8.0 0.00 0.00 0.00 92 1017.0
20260906112019 70 79 2.0 8.0 0.00 0.00 0.00 91 1016.8
20260906111519 71 83 0.0 8.0 0.00 0.00 0.00 92 1017.0
20260906110519 71 94 2.0 9.0 0.00 0.00 0.00 91 1016.9
20260906110019 71 78 2.0 9.0 0.00 0.00 0.00 91 1016.9
20260906105519 71 82 2.0 8.0 0.00 0.00 0.00 91 1016.8
20260906105019 71 81 3.0 8.0 0.00 0.00 0.00 91 1016.9
20260906104519 71 90 5.0 8.0 0.00 0.00 0.00 91 1017.0
20260906103019 71 108 5.0 9.0 0.00 0.00 0.00 91 1017.0
20260906102519 71 98 6.0 9.0 0.00 0.00 0.00 91 1017.0
20260906102019 71 88 2.0 9.0 0.00 0.00 0.00 91 1017.0
20260906100519 71 88 2.0 6.0 0.00 0.00 0.00 91 1016.9
20260906100019 71 85 1.0 5.0 0.00 0.00 0.00 91 1016.8
20260906095518 71 107 1.0 4.0 0.00 0.00 0.00 90 1016.9
20260906095018 71 105 3.0 4.0 0.00 0.00 0.00 90 1016.8
20260906094518 71 105 3.0 5.0 0.00 0.00 0.00 90 1016.7
20260906094018 71 90 0.0 5.0 0.00 0.00 0.00 90 1016.6
20260906093519 71 90 2.0 5.0 0.00 0.00 0.00 90 1016.6
20260906093019 71 88 1.0 6.0 0.00 0.00 0.00 90 1016.5
20260906092518 71 74 4.0 6.0 0.00 0.00 0.00 90 1016.5
20260906092018 71 92 3.0 7.0 0.00 0.00 0.00 90 1016.3
20260906091518 71 91 2.0 9.0 0.00 0.00 0.00 90 1016.2
20260906091018 71 90 3.0 11.0 0.00 0.00 0.00 90 1016.1
20260906090519 71 77 2.0 11.0 0.00 0.00 0.00 90 1016.0
20260906090019 72 95 5.0 11.0 0.00 0.00 0.00 90 1015.9
20260906085518 72 69 0.0 11.0 0.00 0.00 0.00 90 1016.0
20260906084519 72 84 7.0 11.0 0.00 0.00 0.00 90 1016.1
20260906083519 72 101 8.0 11.0 0.00 0.00 0.00 90 1016.0
20260906083018 72 102 5.0 11.0 0.00 0.00 0.00 90 1016.0
20260906082019 72 84 3.0 9.0 0.00 0.00 0.00 89 1016.0
20260906081518 72 65 7.0 9.0 0.00 0.00 0.00 89 1016.1
20260906081018 72 70 4.0 9.0 0.00 0.00 0.00 89 1016.1
20260906080519 72 40 1.0 9.0 0.00 0.00 0.00 89 1016.1
20260906080018 72 46 8.0 9.0 0.00 0.00 0.00 89 1016.2
20260906075518 72 79 7.0 9.0 0.00 0.00 0.00 89 1016.1
20260906074518 72 84 6.0 9.0 0.00 0.00 0.00 89 1016.0
20260906074018 72 77 8.0 9.0 0.00 0.00 0.00 89 1016.0
20260906073518 72 76 0.0 9.0 0.00 0.00 0.00 89 1016.0
20260906073018 72 65 3.0 9.0 0.00 0.00 0.00 89 1016.2
20260906072518 72 31 2.0 8.0 0.00 0.00 0.00 89 1016.2
20260906072018 72 82 3.0 8.0 0.00 0.00 0.00 89 1016.3
20260906071519 73 64 2.0 9.0 0.00 0.00 0.00 89 1016.3
20260906071018 73 52 4.0 9.0 0.00 0.00 0.00 89 1016.3
20260906070518 73 61 2.0 9.0 0.00 0.00 0.00 89 1016.2
20260906070018 73 74 3.0 11.0 0.00 0.00 0.00 89 1016.4
20260906065519 73 55 4.0 11.0 0.00 0.00 0.00 89 1016.4
20260906065018 73 69 11.0 11.0 0.00 0.00 0.00 89 1016.4
20260906064018 73 58 9.0 9.0 0.00 0.00 0.00 88 1016.4
20260906063518 73 55 2.0 9.0 0.00 0.00 0.00 88 1016.5
20260906063018 73 43 4.0 9.0 0.00 0.00 0.00 88 1016.5
20260906062518 73 62 7.0 8.0 0.00 0.00 0.00 88 1016.7
20260906062019 74 46 4.0 7.0 0.00 0.00 0.00 88 1016.9
20260906061518 74 59 2.0 7.0 0.00 0.00 0.00 88 1016.8
20260906061018 74 47 3.0 7.0 0.00 0.00 0.00 88 1016.8
20260906060518 74 31 1.0 12.0 0.00 0.00 0.00 88 1016.7
20260906060018 74 63 4.0 12.0 0.00 0.00 0.00 88 1016.6
20260906055518 74 74 5.0 8.0 0.00 0.00 0.00 88 1016.7
20260906055018 74 44 4.0 8.0 0.00 0.00 0.00 88 1016.6
20260906054518 74 49 1.0 8.0 0.00 0.00 0.00 88 1016.7
20260906054018 74 55 4.0 10.0 0.00 0.00 0.00 87 1016.7
20260906053518 74 57 4.0 10.0 0.00 0.00 0.00 87 1016.6
20260906053018 75 75 10.0 10.0 0.00 0.00 0.00 87 1016.5
20260906052518 75 44 6.0 7.0 0.00 0.00 0.00 87 1016.6
20260906052018 75 56 4.0 7.0 0.00 0.00 0.00 87 1016.5
20260906051518 75 49 2.0 5.0 0.00 0.00 0.00 87 1016.5
20260906051018 75 53 3.0 7.0 0.00 0.00 0.00 87 1016.5
20260906045018 75 55 3.0 9.0 0.00 0.00 0.00 87 1016.1
20260906044518 75 67 5.0 8.0 0.00 0.00 0.00 87 1016.2
20260906044018 75 67 2.0 8.0 0.00 0.00 0.00 87 1016.2
20260906043018 76 73 3.0 10.0 0.00 0.00 0.00 87 1016.1
20260906042518 76 79 2.0 10.0 0.00 0.00 0.00 87 1016.1
20260906042018 76 60 4.0 8.0 0.00 0.00 0.00 87 1016.1
20260906041018 76 43 5.0 13.0 0.00 0.00 0.00 87 1016.2
20260906040518 76 94 5.0 10.0 0.00 0.00 0.00 87 1016.1
20260906040018 76 64 7.0 10.0 0.00 0.00 0.00 87 1016.1
20260906035518 76 59 7.0 8.0 0.00 0.00 0.00 87 1016.0
20260906035048 76 64 3.0 8.0 0.00 0.00 0.00 87 1016.0
20260906034018 76 64 3.0 8.0 0.00 0.00 0.00 87 1016.0
20260906033518 76 65 3.0 8.0 0.00 0.00 0.00 87 1016.1
20260906033018 76 53 5.0 9.0 0.00 0.00 0.00 87 1016.0
20260906032518 76 51 2.0 9.0 0.00 0.00 0.00 87 1016.0
20260906032018 76 51 4.0 14.0 0.00 0.00 0.00 87 1016.0
20260906031518 77 59 4.0 14.0 0.00 0.00 0.00 87 1016.1
20260906031018 77 51 4.0 8.0 0.00 0.00 0.00 87 1016.0
20260906030518 77 76 3.0 9.0 0.00 0.00 0.00 87 1015.9
20260906025018 77 31 4.0 8.0 0.00 0.00 0.00 86 1015.7
20260906024518 77 40 1.0 6.0 0.00 0.00 0.00 85 1015.5
20260906024018 77 47 2.0 6.0 0.00 0.00 0.00 85 1015.4
20260906022518 77 49 4.0 5.0 0.00 0.00 0.00 85 1015.2
20260906022019 78 45 3.0 5.0 0.00 0.00 0.00 85 1015.2
20260906021018 78 55 3.0 6.0 0.00 0.00 0.00 84 1015.0
20260906020518 78 22 2.0 5.0 0.00 0.00 0.00 84 1015.0
20260906020018 78 32 1.0 5.0 0.00 0.00 0.00 84 1015.0
20260906015518 78 36 2.0 5.0 0.00 0.00 0.00 83 1014.8
20260906015018 78 29 0.0 4.0 0.00 0.00 0.00 83 1014.7
20260906013518 78 49 4.0 4.0 0.00 0.00 0.00 83 1014.5
20260906013018 79 49 1.0 7.0 0.00 0.00 0.00 83 1014.5
20260906012518 79 76 3.0 7.0 0.00 0.00 0.00 83 1014.4
20260906012018 79 67 1.0 7.0 0.00 0.00 0.00 83 1014.4
20260906011518 79 32 0.0 7.0 0.00 0.00 0.00 82 1014.4
20260906011018 79 60 2.0 8.0 0.00 0.00 0.00 82 1014.4
20260906010518 79 38 4.0 8.0 0.00 0.00 0.00 82 1014.4
20260906010018 79 46 5.0 8.0 0.00 0.00 0.00 82 1014.3
20260906005518 80 43 2.0 5.0 0.00 0.00 0.00 82 1014.3
20260906005018 80 40 1.0 6.0 0.00 0.00 0.00 82 1014.3
20260906004518 80 42 3.0 6.0 0.00 0.00 0.00 81 1014.3
20260906004018 80 44 1.0 5.0 0.00 0.00 0.00 81 1014.3
20260906003518 80 36 3.0 5.0 0.00 0.00 0.00 81 1014.2
20260906003018 80 45 3.0 5.0 0.00 0.00 0.00 81 1014.2
20260906002518 80 40 3.0 8.0 0.00 0.00 0.00 81 1014.1
20260906002018 80 24 2.0 8.0 0.00 0.00 0.00 81 1014.1
20260906001518 81 65 4.0 7.0 0.00 0.00 0.00 80 1014.2
20260906001018 81 50 0.0 9.0 0.00 0.00 0.00 80 1014.2
20260906000518 81 62 4.0 9.0 0.00 0.00 0.00 80 1014.1
20260906000018 81 44 5.0 8.0 0.00 0.00 0.00 80 1014.1
20260905235518 81 58 4.0 8.0 0.00 0.00 0.00 80 1014.0
20260905234518 81 57 2.0 9.0 0.00 0.00 0.00 79 1014.1
20260905234018 82 75 8.0 10.0 0.00 0.00 0.00 79 1014.1
20260905233518 82 59 3.0 10.0 0.00 0.00 0.00 79 1014.0
20260905232518 82 61 7.0 12.0 0.00 0.00 0.00 79 1013.8
20260905232018 83 69 4.0 12.0 0.00 0.00 0.00 79 1013.9
20260905231518 83 78 9.0 9.0 0.00 0.00 0.00 79 1013.8
20260905230017 84 55 6.0 10.0 0.00 0.00 0.00 79 1014.0
20260905225517 84 33 4.0 11.0 0.00 0.00 0.00 78 1014.0
20260905225017 84 69 7.0 11.0 0.00 0.00 0.00 78 1013.9
20260905224517 84 62 5.0 10.0 0.00 0.00 0.00 79 1013.8
20260905224017 84 82 2.0 10.0 0.00 0.00 0.00 79 1013.8
20260905223517 84 76 1.0 10.0 0.00 0.00 0.00 79 1013.7
20260905223018 84 69 5.0 10.0 0.00 0.00 0.00 79 1013.7
20260905222517 84 63 2.0 10.0 0.00 0.00 0.00 79 1013.6
20260905221018 85 82 6.0 13.0 0.00 0.00 0.00 77 1013.3
20260905220017 86 42 6.0 14.0 0.00 0.00 0.00 77 1013.3
20260905215517 86 75 4.0 14.0 0.00 0.00 0.00 77 1013.1
20260905214517 86 47 8.0 15.0 0.00 0.00 0.00 76 1013.0
20260905214017 86 44 6.0 14.0 0.00 0.00 0.00 76 1013.0
20260905213518 87 76 12.0 14.0 0.00 0.00 0.00 77 1013.1
20260905212517 87 67 5.0 14.0 0.00 0.00 0.00 76 1013.2
20260905212017 87 60 4.0 14.0 0.00 0.00 0.00 76 1013.2
20260905211517 87 51 0.0 14.0 0.00 0.00 0.00 75 1013.3
20260905211017 87 78 5.0 16.0 0.00 0.00 0.00 75 1013.3
20260905210517 88 55 5.0 16.0 0.00 0.00 0.00 75 1013.4
20260905210018 88 81 3.0 11.0 0.00 0.00 0.00 75 1013.5
20260905205517 88 53 3.0 11.0 0.00 0.00 0.00 75 1013.7
20260905204517 88 46 4.0 10.0 0.00 0.00 0.00 74 1013.8
20260905204018 89 62 9.0 10.0 0.00 0.00 0.00 74 1013.9
20260905203018 89 35 3.0 13.0 0.00 0.00 0.00 73 1014.0
20260905202018 89 59 4.0 14.0 0.00 0.00 0.00 73 1014.1
20260905201517 89 81 5.0 12.0 0.00 0.00 0.00 73 1014.2
20260905201017 89 63 7.0 13.0 0.00 0.00 0.00 73 1014.2
20260905200017 89 61 9.0 13.0 0.00 0.00 0.00 74 1014.3
20260905195518 89 67 4.0 13.0 0.00 0.00 0.00 72 1014.4
20260905195017 89 41 7.0 12.0 0.00 0.00 0.00 73 1014.5
20260905194517 89 49 7.0 12.0 0.00 0.00 0.00 74 1014.5
20260905194017 89 39 4.0 11.0 0.00 0.00 0.00 73 1014.5
20260905193017 88 52 4.0 13.0 0.00 0.00 0.00 76 1014.5
20260905192517 88 355 5.0 12.0 0.00 0.00 0.00 75 1014.8
20260905191517 88 49 11.0 12.0 0.00 0.00 0.00 76 1015.0
20260905191017 88 360 2.0 13.0 0.00 0.00 0.00 75 1015.0
20260905190017 89 345 8.0 12.0 0.00 0.00 0.00 76 1015.2
20260905185517 89 26 2.0 12.0 0.00 0.00 0.00 75 1015.3
20260905185017 88 360 5.0 11.0 0.00 0.00 0.00 77 1015.2
20260905184517 88 342 6.0 13.0 0.00 0.00 0.00 78 1015.2
20260905184017 88 22 5.0 14.0 0.00 0.00 0.00 78 1015.1
20260905183017 88 27 4.0 10.0 0.00 0.00 0.00 78 1015.3
20260905182517 88 58 2.0 10.0 0.00 0.00 0.00 77 1015.2
20260905182018 89 5 6.0 9.0 0.00 0.00 0.00 77 1015.1
20260905181517 89 19 4.0 9.0 0.00 0.00 0.00 78 1015.1
20260905181017 88 355 3.0 9.0 0.00 0.00 0.00 78 1015.4
20260905180517 89 41 4.0 9.0 0.00 0.00 0.00 76 1015.4
20260905180017 89 355 3.0 9.0 0.00 0.00 0.00 76 1015.4
20260905175517 89 9 4.0 9.0 0.00 0.00 0.00 76 1015.5
20260905175017 89 348 5.0 9.0 0.00 0.00 0.00 75 1015.4
20260905174517 90 355 3.0 7.0 0.00 0.00 0.00 74 1015.4
20260905174017 90 9 0.0 7.0 0.00 0.00 0.00 75 1015.4
20260905173517 90 32 0.0 8.0 0.00 0.00 0.00 75 1015.3
20260905173017 90 360 1.0 8.0 0.00 0.00 0.00 75 1015.3
20260905172517 90 343 0.0 6.0 0.00 0.00 0.00 75 1015.1
20260905172017 90 50 0.0 8.0 0.00 0.00 0.00 74 1015.2
20260905171517 89 32 2.0 8.0 0.00 0.00 0.00 76 1015.1
20260905171017 89 67 4.0 10.0 0.00 0.00 0.00 77 1015.1